User: anonymous   Login
Location: Adrasan
(36.3319°N, 30.4314°E)
Time: 12:44:41
(UTC+00:00)
Language:

SL-08 R/B - Orbit

View from above orbital plane
View from above orbital plane
View from above satellite
View from above satellite

Ground track
Ground track

The orbit data is extracted from the following two-line orbital elements,

1 27561U 02054C   24113.12294930  .00001734  00000-0  39007-3 0  9990
2 27561  98.5283 305.7529 0045811  34.6499 325.7668 14.57140902136216
Epoch (UTC): 22 April 2024 02:57:02
Eccentricity: 0.0045811
inclination: 98.5283°
perigee height: 670 km
apogee height: 735 km
right ascension of ascending node: 305.7529°
argument of perigee: 34.6499°
revolutions per day: 14.57140902
mean anomaly at epoch: 325.7668°
orbit number at epoch: 13621

The dashed part of the orbit path shows where the satellite is in the earth's shadow,  

DLR